STARLINK-35314 (65837 NORAD) Tracking and Keplerian Element Data

This shows tracking and keplerian element data for the satellite.

Feedback or suggestion? Click here.




ElementValue
Catalog65837
NameSTARLINK-35314
Epoch Orbit1253
Epoch Day354.01989515
Epoch Year2025
RAAN98.5417
Inclination53.1617
Eccentricity6.96E-05
Argument of Perigee87.2805
Mean Anonmoly272.8275
Mean Motion15.30209548
Decay Rate0.00026373
L11 65837U 25221Q 25354.01989515 .00026373 00000+0 89914-3 0 9992
L22 65837 53.1617 98.5417 0000696 87.2805 272.8275 15.30209548 12530



Live tracking and technical data element details for STARLINK-35314 (NORAD 65837). STARLINK-35314 can be tracked NOW for your location showing map with azimuth and elevation plus other details from your city location.







IsCatalogInMostPopularTable: catalog: 65837, numindb: 8
Update: records affected: 1



GetName: 65837 STARLINK-35314

Hit Count: updated at: Thu, 21 May 2026 11:58:39 GMT